Time,TemperatureF,DewpointF,PressureIn,WindDirection,WindDirectionDegrees,WindSpeedMPH,WindSpeedGustMPH,Humidity,HourlyPrecipIn,Conditions,Clouds,dailyrainin,SolarRadiationWatts/m^2,SoftwareType,DateUTC
2013-03-25 00:02:00,24.0,13.0,-100.00,ESE,106,0.0,2.0,61,0.00,,,0.00,1.000000,,2013-03-25 06:02:00,
2013-03-25 00:12:00,24.0,13.0,-100.00,ESE,106,0.0,2.0,61,0.00,,,0.00,1.000000,,2013-03-25 06:12:00,
2013-03-25 00:33:00,22.0,12.0,-100.00,East,81,1.0,2.0,64,0.00,,,0.00,1.000000,,2013-03-25 06:33:00,
2013-03-25 00:42:00,22.0,12.0,-100.00,East,81,1.0,2.0,64,0.00,,,0.00,1.000000,,2013-03-25 06:42:00,
2013-03-25 00:52:00,22.0,12.0,-100.00,East,81,1.0,2.0,64,0.00,,,0.00,1.000000,,2013-03-25 06:52:00,
2013-03-25 01:02:00,22.0,12.0,-100.00,East,81,1.0,2.0,64,0.00,,,0.00,1.000000,,2013-03-25 07:02:00,
2013-03-25 01:12:00,22.0,12.0,-100.00,East,81,1.0,2.0,64,0.00,,,0.00,1.000000,,2013-03-25 07:12:00,
2013-03-25 01:42:00,21.0,12.0,-100.00,ESE,115,0.0,2.0,69,0.00,,,0.00,1.000000,,2013-03-25 07:42:00,
2013-03-25 01:52:00,21.0,12.0,-100.00,ESE,115,0.0,2.0,69,0.00,,,0.00,1.000000,,2013-03-25 07:52:00,
2013-03-25 02:02:00,21.0,12.0,-100.00,ESE,115,0.0,2.0,69,0.00,,,0.00,1.000000,,2013-03-25 08:02:00,
2013-03-25 02:11:00,21.0,12.0,-100.00,ESE,115,0.0,2.0,69,0.00,,,0.00,1.000000,,2013-03-25 08:11:00,
2013-03-25 02:43:00,19.0,11.0,-100.00,NE,44,2.0,4.0,71,0.00,,,0.00,1.000000,,2013-03-25 08:43:00,
2013-03-25 02:52:00,19.0,11.0,-100.00,NE,44,2.0,4.0,71,0.00,,,0.00,1.000000,,2013-03-25 08:52:00,
2013-03-25 03:02:00,19.0,11.0,-100.00,NE,44,2.0,4.0,71,0.00,,,0.00,1.000000,,2013-03-25 09:02:00,
2013-03-25 03:11:00,19.0,11.0,-100.00,NE,44,2.0,4.0,71,0.00,,,0.00,1.000000,,2013-03-25 09:11:00,
2013-03-25 03:33:00,18.0,11.0,-100.00,ESE,111,1.0,5.0,75,0.00,,,0.00,1.000000,,2013-03-25 09:33:00,
2013-03-25 03:43:00,18.0,11.0,-100.00,ESE,111,1.0,5.0,75,0.00,,,0.00,1.000000,,2013-03-25 09:43:00,
2013-03-25 03:52:00,18.0,11.0,-100.00,ESE,111,1.0,5.0,75,0.00,,,0.00,1.000000,,2013-03-25 09:52:00,
2013-03-25 04:02:00,18.0,11.0,-100.00,ESE,111,1.0,5.0,75,0.00,,,0.00,1.000000,,2013-03-25 10:02:00,
2013-03-25 04:12:00,18.0,11.0,-100.00,ESE,111,1.0,5.0,75,0.00,,,0.00,1.000000,,2013-03-25 10:12:00,
2013-03-25 04:42:00,17.0,10.0,-100.00,ESE,117,3.0,7.0,74,0.00,,,0.00,1.000000,,2013-03-25 10:42:00,
2013-03-25 04:53:00,17.0,10.0,-100.00,ESE,117,3.0,7.0,74,0.00,,,0.00,1.000000,,2013-03-25 10:53:00,
2013-03-25 05:02:00,17.0,10.0,-100.00,ESE,117,3.0,7.0,74,0.00,,,0.00,1.000000,,2013-03-25 11:02:00,
2013-03-25 05:12:00,17.0,10.0,-100.00,ESE,117,3.0,7.0,74,0.00,,,0.00,1.000000,,2013-03-25 11:12:00,
2013-03-25 05:32:00,16.0,9.0,-100.00,East,85,2.0,5.0,73,0.00,,,0.00,1.000000,,2013-03-25 11:32:00,
2013-03-25 05:42:00,16.0,9.0,-100.00,East,85,2.0,5.0,73,0.00,,,0.00,1.000000,,2013-03-25 11:42:00,
2013-03-25 05:52:00,16.0,9.0,-100.00,East,85,2.0,5.0,73,0.00,,,0.00,1.000000,,2013-03-25 11:52:00,
2013-03-25 06:02:00,16.0,9.0,-100.00,East,85,2.0,5.0,73,0.00,,,0.00,1.000000,,2013-03-25 12:02:00,
2013-03-25 06:11:00,16.0,9.0,-100.00,East,85,2.0,5.0,73,0.00,,,0.00,1.000000,,2013-03-25 12:11:00,
2013-03-25 06:33:00,16.0,9.0,-100.00,East,98,3.0,8.0,72,0.00,,,0.00,1.000000,,2013-03-25 12:33:00,
2013-03-25 06:43:00,16.0,9.0,-100.00,East,98,3.0,8.0,72,0.00,,,0.00,1.000000,,2013-03-25 12:43:00,
2013-03-25 06:53:00,16.0,9.0,-100.00,East,98,3.0,8.0,72,0.00,,,0.00,1.000000,,2013-03-25 12:53:00,
2013-03-25 07:02:00,16.0,9.0,-100.00,East,98,3.0,8.0,72,0.00,,,0.00,1.000000,,2013-03-25 13:02:00,
2013-03-25 07:12:00,16.0,9.0,-100.00,East,98,3.0,8.0,72,0.00,,,0.00,1.000000,,2013-03-25 13:12:00,
2013-03-25 07:32:00,15.0,8.0,-100.00,ESE,111,3.0,7.0,73,0.00,,,0.00,1.000000,,2013-03-25 13:32:00,
2013-03-25 07:43:00,15.0,8.0,-100.00,ESE,111,3.0,7.0,73,0.00,,,0.00,1.000000,,2013-03-25 13:43:00,
2013-03-25 07:52:00,15.0,8.0,-100.00,ESE,111,3.0,7.0,73,0.00,,,0.00,1.000000,,2013-03-25 13:52:00,
2013-03-25 08:02:00,15.0,8.0,-100.00,ESE,111,3.0,7.0,73,0.00,,,0.00,1.000000,,2013-03-25 14:02:00,
2013-03-25 08:12:00,15.0,8.0,-100.00,ESE,111,3.0,7.0,73,0.00,,,0.00,1.000000,,2013-03-25 14:12:00,
2013-03-25 08:32:00,14.0,7.0,-100.00,ESE,103,3.0,7.0,74,0.00,,,0.00,1.000000,,2013-03-25 14:32:00,
2013-03-25 08:43:00,14.0,7.0,-100.00,ESE,103,3.0,7.0,74,0.00,,,0.00,1.000000,,2013-03-25 14:43:00,
2013-03-25 08:53:00,14.0,7.0,-100.00,ESE,103,3.0,7.0,74,0.00,,,0.00,1.000000,,2013-03-25 14:53:00,
2013-03-25 09:02:00,14.0,7.0,-100.00,ESE,103,3.0,7.0,74,0.00,,,0.00,1.000000,,2013-03-25 15:02:00,
2013-03-25 09:43:00,14.0,6.0,-100.00,East,99,3.0,8.0,71,0.00,,,0.00,8.000000,,2013-03-25 15:43:00,
2013-03-25 09:53:00,14.0,6.0,-100.00,East,99,3.0,8.0,71,0.00,,,0.00,8.000000,,2013-03-25 15:53:00,
2013-03-25 10:03:00,14.0,6.0,-100.00,East,99,3.0,8.0,71,0.00,,,0.00,8.000000,,2013-03-25 16:03:00,
2013-03-25 10:12:00,14.0,6.0,-100.00,East,99,3.0,8.0,71,0.00,,,0.00,8.000000,,2013-03-25 16:12:00,
2013-03-25 10:43:00,19.0,8.0,-100.00,NNE,18,4.0,9.0,62,0.00,,,0.00,45.000000,,2013-03-25 16:43:00,
2013-03-25 10:53:00,19.0,8.0,-100.00,NNE,18,4.0,9.0,62,0.00,,,0.00,45.000000,,2013-03-25 16:53:00,
2013-03-25 11:02:00,19.0,8.0,-100.00,NNE,18,4.0,9.0,62,0.00,,,0.00,45.000000,,2013-03-25 17:02:00,
2013-03-25 11:43:00,27.0,10.0,-100.00,NNW,344,4.0,11.0,49,-99.99,,,0.00,224.000000,,2013-03-25 17:43:00,
2013-03-25 11:52:00,27.0,10.0,-100.00,NNW,344,4.0,11.0,49,-99.99,,,0.00,224.000000,,2013-03-25 17:52:00,
2013-03-25 12:03:00,27.0,10.0,-100.00,NNW,344,4.0,11.0,49,-99.99,,,0.00,224.000000,,2013-03-25 18:03:00,
2013-03-25 12:43:00,35.0,11.0,-100.00,North,358,4.0,9.0,36,-99.99,,,0.00,502.000000,,2013-03-25 18:43:00,
2013-03-25 12:53:00,35.0,11.0,-100.00,North,358,4.0,9.0,36,-99.99,,,0.00,502.000000,,2013-03-25 18:53:00,
2013-03-25 13:02:00,35.0,11.0,-100.00,North,358,4.0,9.0,36,-99.99,,,0.00,502.000000,,2013-03-25 19:02:00,
2013-03-25 13:12:00,35.0,11.0,-100.00,North,358,4.0,9.0,36,-99.99,,,0.00,502.000000,,2013-03-25 19:12:00,
2013-03-25 13:43:00,41.0,9.0,-100.00,NW,326,6.0,12.0,26,0.00,,,0.00,656.000000,,2013-03-25 19:43:00,
2013-03-25 13:52:00,41.0,9.0,-100.00,NW,326,6.0,12.0,26,0.00,,,0.00,656.000000,,2013-03-25 19:52:00,
2013-03-25 14:02:00,41.0,9.0,-100.00,NW,326,6.0,12.0,26,0.00,,,0.00,656.000000,,2013-03-25 20:02:00,
2013-03-25 14:12:00,41.0,9.0,-100.00,NW,326,6.0,12.0,26,0.00,,,0.00,656.000000,,2013-03-25 20:12:00,
2013-03-25 14:42:00,44.0,9.0,-100.00,NNW,338,6.0,12.0,23,0.00,,,0.00,728.000000,,2013-03-25 20:42:00,
2013-03-25 14:52:00,44.0,9.0,-100.00,NNW,338,6.0,12.0,23,0.00,,,0.00,728.000000,,2013-03-25 20:52:00,
2013-03-25 15:02:00,44.0,9.0,-100.00,NNW,338,6.0,12.0,23,0.00,,,0.00,728.000000,,2013-03-25 21:02:00,
2013-03-25 15:12:00,44.0,9.0,-100.00,NNW,338,6.0,12.0,23,0.00,,,0.00,728.000000,,2013-03-25 21:12:00,
2013-03-25 15:33:00,46.0,8.0,-100.00,NNW,327,5.0,13.0,21,0.00,,,0.00,784.000000,,2013-03-25 21:33:00,
2013-03-25 15:43:00,46.0,8.0,-100.00,NNW,327,5.0,13.0,21,0.00,,,0.00,784.000000,,2013-03-25 21:43:00,
2013-03-25 15:52:00,46.0,8.0,-100.00,NNW,327,5.0,13.0,21,0.00,,,0.00,784.000000,,2013-03-25 21:52:00,
2013-03-25 16:03:00,46.0,8.0,-100.00,NNW,327,5.0,13.0,21,0.00,,,0.00,784.000000,,2013-03-25 22:03:00,
2013-03-25 16:12:00,46.0,8.0,-100.00,NNW,327,5.0,13.0,21,0.00,,,0.00,784.000000,,2013-03-25 22:12:00,
2013-03-25 16:42:00,48.0,13.0,-100.00,NNW,327,5.0,11.0,24,0.00,,,0.00,749.000000,,2013-03-25 22:42:00,
2013-03-25 16:52:00,48.0,13.0,-100.00,NNW,327,5.0,11.0,24,0.00,,,0.00,749.000000,,2013-03-25 22:52:00,
2013-03-25 17:02:00,48.0,13.0,-100.00,NNW,327,5.0,11.0,24,0.00,,,0.00,749.000000,,2013-03-25 23:02:00,
2013-03-25 17:12:00,48.0,13.0,-100.00,NNW,327,5.0,11.0,24,0.00,,,0.00,749.000000,,2013-03-25 23:12:00,
2013-03-25 17:43:00,48.0,11.0,-100.00,NNW,348,4.0,10.0,22,0.00,,,0.00,549.000000,,2013-03-25 23:43:00,
2013-03-25 17:52:00,48.0,11.0,-100.00,NNW,348,4.0,10.0,22,0.00,,,0.00,549.000000,,2013-03-25 23:52:00,
2013-03-25 18:02:00,48.0,11.0,-100.00,NNW,348,4.0,10.0,22,0.00,,,0.00,549.000000,,2013-03-26 00:02:00,
2013-03-25 18:11:00,48.0,11.0,-100.00,NNW,348,4.0,10.0,22,0.00,,,0.00,549.000000,,2013-03-26 00:11:00,
2013-03-25 19:33:00,46.0,14.0,-100.00,West,267,4.0,9.0,27,-99.99,,,0.00,214.000000,,2013-03-26 01:33:00,
2013-03-25 19:42:00,46.0,14.0,-100.00,West,267,4.0,9.0,27,-99.99,,,0.00,214.000000,,2013-03-26 01:42:00,
2013-03-25 19:52:00,46.0,14.0,-100.00,West,267,4.0,9.0,27,-99.99,,,0.00,214.000000,,2013-03-26 01:52:00,
2013-03-25 20:02:00,46.0,14.0,-100.00,West,267,4.0,9.0,27,-99.99,,,0.00,214.000000,,2013-03-26 02:02:00,
2013-03-25 20:43:00,44.0,15.0,-100.00,SW,230,3.0,8.0,30,0.00,,,0.00,56.000000,,2013-03-26 02:43:00,
2013-03-25 20:52:00,44.0,15.0,-100.00,SW,230,3.0,8.0,30,0.00,,,0.00,56.000000,,2013-03-26 02:52:00,
2013-03-25 21:02:00,44.0,15.0,-100.00,SW,230,3.0,8.0,30,0.00,,,0.00,56.000000,,2013-03-26 03:02:00,
2013-03-25 21:12:00,44.0,15.0,-100.00,SW,230,3.0,8.0,30,0.00,,,0.00,56.000000,,2013-03-26 03:12:00,
2013-03-25 21:34:00,40.0,19.0,-100.00,South,189,1.0,5.0,42,0.00,,,0.00,11.000000,,2013-03-26 03:34:00,
2013-03-25 21:43:00,40.0,19.0,-100.00,South,189,1.0,5.0,42,0.00,,,0.00,11.000000,,2013-03-26 03:43:00,
2013-03-25 21:53:00,40.0,19.0,-100.00,South,189,1.0,5.0,42,0.00,,,0.00,11.000000,,2013-03-26 03:53:00,
2013-03-25 22:03:00,40.0,19.0,-100.00,South,189,1.0,5.0,42,0.00,,,0.00,11.000000,,2013-03-26 04:03:00,
2013-03-25 22:12:00,40.0,19.0,-100.00,South,189,1.0,5.0,42,0.00,,,0.00,11.000000,,2013-03-26 04:12:00,
2013-03-25 22:33:00,36.0,20.0,-100.00,NE,41,2.0,2.0,51,0.00,,,0.00,1.000000,,2013-03-26 04:33:00,
2013-03-25 22:43:00,36.0,20.0,-100.00,NE,41,2.0,2.0,51,0.00,,,0.00,1.000000,,2013-03-26 04:43:00,
2013-03-25 22:52:00,36.0,20.0,-100.00,NE,41,2.0,2.0,51,0.00,,,0.00,1.000000,,2013-03-26 04:52:00,
2013-03-25 23:02:00,36.0,20.0,-100.00,NE,41,2.0,2.0,51,0.00,,,0.00,1.000000,,2013-03-26 05:02:00,
2013-03-25 23:12:00,36.0,20.0,-100.00,NE,41,2.0,2.0,51,0.00,,,0.00,1.000000,,2013-03-26 05:12:00,
2013-03-25 23:42:00,34.0,23.0,-100.00,ESE,103,0.0,2.0,63,0.00,,,0.00,1.000000,,2013-03-26 05:42:00,
2013-03-25 23:52:00,34.0,23.0,-100.00,ESE,103,0.0,2.0,63,0.00,,,0.00,1.000000,,2013-03-26 05:52:00,